"2009-12-18 00:00:00",1512286,12.04,326.4,2.972,0.746,9.82,102.1702,4.838,6.243,33.71,0,109.9,13.43,5.61,288.4
"2009-12-18 00:00:30",1512287,11.39,325.9,4.004,0.697,9.84,102.1702,4.838,6.219,33.74,0,109.9,13.44,5.61,287.9
"2009-12-18 00:01:00",1512288,11.24,325.3,3.661,0.784,10.05,102.1702,4.838,6.218,33.68,0,109.9,13.44,5.61,287.3
"2009-12-18 00:01:30",1512289,11.04,325.6,2.176,0.753,9.7,102.1705,4.839,6.21,33.6,0,109.9,13.44,5.61,287.6
"2009-12-18 00:02:00",1512290,11.3,323.2,3.639,0.72,9.69,102.1711,4.84,6.209,33.71,0,109.9,13.44,5.61,285.2
"2009-12-18 00:02:30",1512291,11.73,324.1,3.043,0.784,9.64,102.1714,4.841,6.181,33.79,0,109.9,13.44,5.61,286.1
"2009-12-18 00:03:00",1512292,11.74,324.2,3.024,0.764,9.81,102.1717,4.842,6.203,33.77,0,109.9,13.44,5.61,286.2
"2009-12-18 00:03:30",1512293,11.98,322.8,2.828,0.659,9.59,102.1746,4.849,6.181,33.71,0,109.9,13.44,5.62,284.8
"2009-12-18 00:04:00",1512294,12.06,323.3,2.826,0.714,9.53,102.1766,4.854,6.194,33.94,0,109.9,13.45,5.62,285.3
"2009-12-18 00:04:30",1512295,11.93,322.7,3.239,0.691,9.54,102.1783,4.859,6.189,34.18,0,109.8,13.45,5.63,284.7
"2009-12-18 00:05:00",1512296,11.32,321.2,2.903,0.765,9.66,102.1786,4.859,6.168,34.27,0,109.8,13.45,5.63,283.2
"2009-12-18 00:05:30",1512297,11.9,321.7,2.201,0.627,9.45,102.1762,4.853,6.165,34.44,0,109.7,13.45,5.62,283.7
"2009-12-18 00:06:00",1512298,11.82,320.9,3.304,0.832,9.43,102.1737,4.847,6.161,34.57,0,109.8,13.45,5.62,282.9
"2009-12-18 00:06:30",1512299,11.73,323.3,3.383,0.717,9.35,102.1709,4.84,6.17,34.62,0,109.8,13.45,5.61,285.3
"2009-12-18 00:07:00",1512300,12.16,324.4,3.671,0.796,9.82,102.1659,4.827,6.153,34.5,0,109.8,13.45,5.60,286.4
"2009-12-18 00:07:30",1512301,12.83,324.7,3.63,0.518,9.56,102.1597,4.811,6.146,34.22,0,109.9,13.45,5.58,286.7
"2009-12-18 00:08:00",1512302,12.61,324.8,3.839,0.595,9.64,102.1611,4.815,6.154,34.51,0,109.8,13.45,5.58,286.8
"2009-12-18 00:08:30",1512303,11.95,323.8,3.547,0.821,9.63,102.1632,4.82,6.138,34.51,0,109.8,13.45,5.59,285.8
"2009-12-18 00:09:00",1512304,11.71,322.8,2.711,0.728,9.71,102.164,4.822,6.131,34.6,0,109.8,13.45,5.59,284.8
"2009-12-18 00:09:30",1512305,12.1,321.1,2.954,0.504,9.58,102.1649,4.824,6.113,34.61,0,109.8,13.45,5.59,283.1
"2009-12-18 00:10:00",1512306,12.11,323.4,3.565,0.751,9.69,102.1655,4.826,6.122,34.66,0,109.8,13.45,5.59,285.4
"2009-12-18 00:10:30",1512307,12.55,322.6,3.066,0.83,9.49,102.1607,4.814,6.103,34.86,0,109.8,13.45,5.58,284.6
"2009-12-18 00:11:00",1512308,12.46,322.2,3.529,0.674,9.78,102.1545,4.798,6.089,34.8,0,109.8,13.45,5.57,284.2
"2009-12-18 00:11:30",1512309,13.53,322.5,3.118,0.822,9.77,102.1497,4.785,6.103,34.75,0,109.9,13.44,5.55,284.5
"2009-12-18 00:12:00",1512310,13.38,320.6,3.062,0.812,9.81,102.1529,4.794,6.097,34.45,0,109.8,13.44,5.56,282.6
"2009-12-18 00:12:30",1512311,12.94,318.6,2.939,0.753,9.83,102.1424,4.767,6.073,34.44,0,109.8,13.44,5.54,280.6
"2009-12-18 00:13:00",1512312,12.75,322.7,3.135,0.795,9.97,102.137,4.753,6.069,34.57,0,109.8,13.44,5.52,284.7
"2009-12-18 00:13:30",1512313,13.21,321.7,3.593,0.659,9.93,102.1365,4.752,6.066,34.52,0,109.9,13.44,5.52,283.7
"2009-12-18 00:14:00",1512314,13.17,324.6,4.058,0.745,9.98,102.137,4.753,6.055,34.55,0,109.8,13.44,5.52,286.6
"2009-12-18 00:14:30",1512315,12.82,324,2.664,0.857,9.89,102.137,4.753,6.048,34.56,0,109.8,13.44,5.52,286.0
"2009-12-18 00:15:00",1512316,12.45,324.5,3.323,0.88,10.07,102.1367,4.752,6.046,34.38,0,109.8,13.44,5.52,286.5
"2009-12-18 00:15:30",1512317,12.69,325.8,3.488,0.81,9.85,102.1367,4.752,6.033,34.24,0,109.8,13.44,5.52,287.8
"2009-12-18 00:16:00",1512318,12.88,323,2.872,0.95,9.66,102.1353,4.749,6.049,34.34,0,109.8,13.45,5.52,285.0
"2009-12-18 00:16:30",1512319,11.85,324.1,3.496,0.936,9.74,102.1351,4.748,6.023,34.6,0,109.8,13.45,5.52,286.1
"2009-12-18 00:17:00",1512320,12.06,322.3,3.915,0.675,9.83,102.1274,4.729,6.019,34.7,0,109.8,13.45,5.50,284.3
"2009-12-18 00:17:30",1512321,12.41,321,3.158,0.485,9.67,102.1229,4.717,6.013,34.71,0,109.8,13.45,5.49,283.0
"2009-12-18 00:18:00",1512322,13.09,320.6,3.509,0.748,9.75,102.1195,4.708,6.048,34.65,0,109.8,13.45,5.48,282.6
"2009-12-18 00:18:30",1512323,13.21,320.8,3.564,0.64,9.8,102.1187,4.706,6.022,34.46,0,109.8,13.45,5.47,282.8
"2009-12-18 00:19:00",1512324,12.62,321.7,1.993,0.972,9.87,102.1133,4.692,5.998,34.43,0,109.8,13.45,5.46,283.7
"2009-12-18 00:19:30",1512325,12.66,319.9,3.754,0.455,9.74,102.1068,4.676,5.999,34.49,0,109.8,13.45,5.44,281.9
"2009-12-18 00:20:00",1512326,12.33,319,2.949,0.747,9.65,102.1037,4.668,6.01,34.54,0,109.8,13.45,5.44,281.0
"2009-12-18 00:20:30",1512327,12.46,317.6,3.412,0.778,9.63,102.1031,4.666,5.984,34.64,0,109.8,13.45,5.43,279.6
"2009-12-18 00:21:00",1512328,11.74,316.3,2.909,0.816,9.68,102.1031,4.666,5.992,34.63,0,109.8,13.45,5.43,278.3
"2009-12-18 00:21:30",1512329,11.86,318.1,2.398,0.952,9.41,102.1031,4.666,5.967,34.7,0,109.8,13.45,5.43,280.1
"2009-12-18 00:22:00",1512330,12.39,319.2,3.413,0.813,9.44,102.1031,4.666,5.989,34.56,0,109.8,13.46,5.43,281.2
"2009-12-18 00:22:30",1512331,12.55,316.8,3.326,0.864,9.4,102.1031,4.666,5.969,34.71,0,109.8,13.46,5.43,278.8
"2009-12-18 00:23:00",1512332,12.48,318.5,3.573,0.904,9.54,102.1025,4.665,5.961,34.6,0,109.8,13.46,5.43,280.5
"2009-12-18 00:23:30",1512333,12.81,319.3,4.136,0.758,9.41,102.0977,4.653,5.964,34.74,0,109.8,13.46,5.42,281.3
"2009-12-18 00:24:00",1512334,12.32,321.5,3.338,0.844,9.61,102.0881,4.628,5.979,34.55,0,109.8,13.46,5.40,283.5
"2009-12-18 00:24:30",1512335,13.11,320.9,3.369,0.785,9.6,102.0813,4.611,5.951,34.52,0,109.8,13.46,5.38,282.9
"2009-12-18 00:25:00",1512336,13.98,321.2,3.621,0.813,9.74,102.0799,4.607,5.944,34.69,0,109.8,13.46,5.38,283.2
"2009-12-18 00:25:30",1512337,13.2,320.5,4.747,0.758,9.79,102.0743,4.593,5.937,34.77,0,109.8,13.46,5.36,282.5
"2009-12-18 00:26:00",1512338,13.01,317.7,4.355,0.765,9.67,102.0695,4.581,5.935,34.91,0,109.8,13.46,5.35,279.7
"2009-12-18 00:26:30",1512339,12.63,317.8,3.618,0.812,9.56,102.0692,4.58,5.923,35.07,0,109.8,13.46,5.35,279.8
"2009-12-18 00:27:00",1512340,13.59,317.7,3.85,0.646,9.95,102.0692,4.58,5.92,34.99,0,109.8,13.45,5.35,279.7
"2009-12-18 00:27:30",1512341,13.62,319.3,2.778,0.744,9.69,102.0692,4.58,5.911,34.93,0,109.9,13.45,5.35,281.3
"2009-12-18 00:28:00",1512342,13.46,318,3.444,0.774,9.66,102.0686,4.578,5.914,34.84,0,109.8,13.45,5.35,280.0
"2009-12-18 00:28:30",1512343,14,320.1,3.097,0.932,9.71,102.0635,4.565,5.891,35,0,109.8,13.45,5.33,282.1
"2009-12-18 00:29:00",1512344,14.26,320.1,3.172,0.829,9.99,102.0511,4.534,5.879,34.63,0,109.8,13.45,5.30,282.1
"2009-12-18 00:29:30",1512345,14.57,320,2.502,0.778,9.83,102.0423,4.511,5.886,34.64,0,109.8,13.45,5.28,282.0
"2009-12-18 00:30:00",1512346,14.28,318,2.902,0.83,9.85,102.0356,4.494,5.889,34.92,0,109.8,13.45,5.26,280.0
"2009-12-18 00:30:30",1512347,14.33,319.6,2.337,0.783,9.9,102.0359,4.495,5.868,34.91,0,109.8,13.45,5.26,281.6
"2009-12-18 00:31:00",1512348,14.17,318.5,3.201,0.632,10.17,102.0353,4.493,5.843,34.77,0,109.8,13.45,5.26,280.5
"2009-12-18 00:31:30",1512349,14.05,319,3.326,0.742,9.92,102.0353,4.493,5.838,34.9,0,109.8,13.45,5.26,281.0
"2009-12-18 00:32:00",1512350,14.53,320.1,3.759,0.718,9.97,102.0361,4.495,5.842,34.94,0,109.8,13.45,5.26,282.1
"2009-12-18 00:32:30",1512351,14.22,320.3,2.978,0.746,9.92,102.0364,4.496,5.84,34.98,0,109.8,13.46,5.26,282.3
"2009-12-18 00:33:00",1512352,14.21,321.8,2.998,0.796,10.14,102.0376,4.499,5.826,34.71,0,109.8,13.46,5.27,283.8
"2009-12-18 00:33:30",1512353,14.04,322.9,3.032,0.82,10.03,102.0365,4.496,5.817,34.75,0,109.8,13.46,5.26,284.9
"2009-12-18 00:34:00",1512354,13.86,323.3,3.276,0.768,10.06,102.0331,4.488,5.821,34.65,0,109.8,13.46,5.26,285.3
"2009-12-18 00:34:30",1512355,14.07,322.7,3.171,0.79,9.94,102.0295,4.478,5.804,34.55,0,109.8,13.46,5.25,284.7
"2009-12-18 00:35:00",1512356,13.67,322.7,2.942,0.767,10.1,102.0249,4.467,5.802,34.71,0,109.8,13.46,5.23,284.7
"2009-12-18 00:35:30",1512357,13.85,323.2,2.556,0.668,10.18,102.0233,4.463,5.798,34.44,0,109.8,13.46,5.23,285.2
"2009-12-18 00:36:00",1512358,13.4,324,2.888,0.839,10.1,102.0199,4.454,5.794,34.23,0,109.8,13.46,5.22,286.0
"2009-12-18 00:36:30",1512359,13.68,322.6,3.459,0.785,10.17,102.0168,4.446,5.794,33.98,0,109.8,13.46,5.21,284.6
"2009-12-18 00:37:00",1512360,13.51,324.1,3.657,0.656,10.19,102.0126,4.435,5.781,33.89,0,109.8,13.46,5.20,286.1
"2009-12-18 00:37:30",1512361,13.93,323,2.91,0.774,9.94,102.0109,4.431,5.777,34.16,0,109.8,13.46,5.20,285.0
"2009-12-18 00:38:00",1512362,13.91,322.4,3.503,0.895,9.93,102.0135,4.438,5.791,34.03,0,109.8,13.46,5.21,284.4
"2009-12-18 00:38:30",1512363,13.27,322.3,3.452,1.025,9.83,102.0152,4.442,5.768,34.38,0,109.8,13.46,5.21,284.3
"2009-12-18 00:39:00",1512364,13.86,322.5,2.346,0.94,9.96,102.0129,4.436,5.764,34.49,0,109.8,13.46,5.20,284.5
"2009-12-18 00:39:30",1512365,13.71,323.6,3.695,0.79,9.91,102.0161,4.444,5.766,34.46,0,109.8,13.46,5.21,285.6
"2009-12-18 00:40:00",1512366,13.65,325,3.85,0.866,9.86,102.0166,4.446,5.779,34.38,0,109.8,13.46,5.21,287.0
"2009-12-18 00:40:30",1512367,13.32,326.4,3.653,0.855,9.76,102.0169,4.446,5.761,34.74,0,109.8,13.46,5.21,288.4
"2009-12-18 00:41:00",1512368,13.29,324.8,2.811,0.828,9.86,102.0169,4.446,5.76,34.78,0,109.8,13.46,5.21,286.8
"2009-12-18 00:41:30",1512369,14.1,325.1,3.49,0.791,9.85,102.0172,4.447,5.765,34.7,0,109.8,13.47,5.21,287.1
"2009-12-18 00:42:00",1512370,13.87,324.6,3.659,0.723,9.93,102.0178,4.449,5.769,34.41,0,109.8,13.47,5.22,286.6
"2009-12-18 00:42:30",1512371,14.06,326.1,4.347,1.129,9.8,102.0178,4.449,5.744,34.52,0,109.8,13.47,5.22,288.1
"2009-12-18 00:43:00",1512372,13.51,325.6,3.864,1.004,9.98,102.0184,4.45,5.751,34.57,0,109.8,13.47,5.22,287.6
"2009-12-18 00:43:30",1512373,14.28,326.8,3.208,0.854,9.94,102.0201,4.455,5.745,34.45,0,109.8,13.46,5.22,288.8
"2009-12-18 00:44:00",1512374,14.15,324.8,2.566,0.9,9.97,102.015,4.442,5.755,34.12,0,109.8,13.46,5.21,286.8
"2009-12-18 00:44:30",1512375,14.27,324.1,4.076,0.767,10.04,102.0085,4.425,5.732,34.04,0,109.8,13.46,5.19,286.1
"2009-12-18 00:45:00",1512376,14.39,323,3.54,0.69,10.13,102.0037,4.413,5.731,33.75,0,109.8,13.46,5.18,285.0
"2009-12-18 00:45:30",1512377,14.46,322.7,2.96,0.776,9.99,102.0046,4.415,5.72,33.81,0,109.7,13.46,5.18,284.7
"2009-12-18 00:46:00",1512378,13.89,323.5,3.797,0.879,9.99,102.001,4.406,5.718,33.89,0,109.8,13.46,5.17,285.5
"2009-12-18 00:46:30",1512379,13.71,321.8,3.692,0.837,9.91,101.9945,4.389,5.709,34.1,0,109.8,13.46,5.16,283.8
"2009-12-18 00:47:00",1512380,14.16,323.6,2.68,0.997,10.06,101.9925,4.384,5.693,34.11,0,109.8,13.46,5.15,285.6
"2009-12-18 00:47:30",1512381,14.33,325.2,2.195,0.78,9.94,101.9931,4.386,5.695,33.96,0,109.8,13.46,5.15,287.2
"2009-12-18 00:48:00",1512382,14.03,325.3,3.094,0.818,9.84,101.9919,4.383,5.707,34.04,0,109.8,13.46,5.15,287.3
"2009-12-18 00:48:30",1512383,14.38,324,3.665,0.881,9.99,101.994,4.388,5.679,34.28,0,109.8,13.46,5.16,286.0
"2009-12-18 00:49:00",1512384,14.58,325,3.547,0.633,10.12,101.994,4.388,5.687,33.91,0,109.8,13.46,5.16,287.0
"2009-12-18 00:49:30",1512385,14.64,324.8,2.884,0.784,10.01,101.9928,4.385,5.689,34.04,0,109.7,13.47,5.15,286.8
"2009-12-18 00:50:00",1512386,14.79,325.6,3.298,0.789,9.99,101.9922,4.383,5.685,33.99,0,109.8,13.47,5.15,287.6
"2009-12-18 00:50:30",1512387,15.42,325.3,3.316,0.78,10.17,101.9931,4.386,5.673,33.82,0,109.8,13.47,5.15,287.3
"2009-12-18 00:51:00",1512388,15.9,325.8,3.266,0.79,10.31,101.9937,4.387,5.678,33.62,0,109.8,13.47,5.15,287.8
"2009-12-18 00:51:30",1512389,16.1,326.1,3.078,0.7,10.19,101.9937,4.387,5.667,33.49,0,109.9,13.47,5.15,288.1
"2009-12-18 00:52:00",1512390,15.8,325.3,4.11,0.967,10.33,101.9943,4.389,5.674,33.47,0,109.8,13.47,5.16,287.3
"2009-12-18 00:52:30",1512391,14.74,326,2.839,0.92,10.26,101.9951,4.391,5.643,33.42,0,109.8,13.47,5.16,288.0
"2009-12-18 00:53:00",1512392,14.96,326.4,3.558,0.993,10.22,101.9942,4.388,5.646,33.6,0,109.8,13.47,5.16,288.4
"2009-12-18 00:53:30",1512393,14.55,326.4,3.022,0.9,10.05,101.9934,4.386,5.657,33.77,0,109.8,13.47,5.15,288.4
"2009-12-18 00:54:00",1512394,14.05,330,4.384,0.843,10,101.9937,4.387,5.67,34.03,0,109.8,13.47,5.15,292.0
"2009-12-18 00:54:30",1512395,12.95,330.6,4.107,0.705,9.92,101.9942,4.388,5.653,34.22,0,109.8,13.47,5.16,292.6
"2009-12-18 00:55:00",1512396,13.48,328.6,4.008,0.904,10.05,101.994,4.388,5.669,34.16,0,109.8,13.47,5.16,290.6
"2009-12-18 00:55:30",1512397,13.58,327.9,3.145,0.677,9.88,101.9945,4.389,5.649,33.97,0,109.9,13.47,5.16,289.9
"2009-12-18 00:56:00",1512398,14.62,324.4,3.006,0.974,9.94,101.994,4.388,5.66,33.72,0,109.8,13.47,5.16,286.4
"2009-12-18 00:56:30",1512399,14.59,324.1,3.275,0.849,9.97,101.9926,4.384,5.661,33.4,0,109.8,13.47,5.15,286.1
"2009-12-18 00:57:00",1512400,14.47,323.1,2.999,0.938,10.12,101.9943,4.389,5.657,33.37,0,109.8,13.47,5.16,285.1
"2009-12-18 00:57:30",1512401,13.73,324.5,3.144,0.777,9.91,101.9943,4.389,5.642,33.56,0,109.8,13.48,5.16,286.5
"2009-12-18 00:58:00",1512402,13.92,327.3,4.554,0.862,9.82,101.9929,4.385,5.66,33.59,0,109.8,13.48,5.15,289.3
"2009-12-18 00:58:30",1512403,14.07,330.4,3.027,0.991,9.86,101.99,4.378,5.65,33.77,0,109.8,13.48,5.15,292.4
"2009-12-18 00:59:00",1512404,13.97,327.8,3.164,0.846,10.03,101.9878,4.372,5.651,33.71,0,109.8,13.48,5.14,289.8
"2009-12-18 00:59:30",1512405,14.25,325.4,3.681,0.649,9.89,101.9869,4.37,5.636,33.44,0,109.8,13.47,5.14,287.4
"2009-12-18 01:00:00",1512406,13.72,324.2,4.078,0.546,9.93,101.9855,4.366,5.649,33.57,0,109.8,13.47,5.13,286.2
"2009-12-18 01:00:30",1512407,12.99,325.1,3.154,0.792,9.77,101.9842,4.363,5.641,33.69,0,109.8,13.47,5.13,287.1
"2009-12-18 01:01:00",1512408,13.78,327.3,3.176,0.851,9.93,101.9793,4.35,5.628,33.61,0,109.8,13.47,5.12,289.3
"2009-12-18 01:01:30",1512409,13.3,325.1,3.42,0.839,9.65,101.9765,4.343,5.646,33.67,0,109.8,13.47,5.11,287.1
"2009-12-18 01:02:00",1512410,13.32,324.7,2.698,0.943,9.65,101.9748,4.339,5.65,33.88,0,109.8,13.47,5.11,286.7
"2009-12-18 01:02:30",1512411,13.38,326.9,3.517,0.879,9.61,101.974,4.337,5.644,33.76,0,109.8,13.47,5.10,288.9
"2009-12-18 01:03:00",1512412,13.11,327.5,3.557,0.851,9.75,101.9703,4.327,5.624,33.92,0,109.8,13.47,5.09,289.5
"2009-12-18 01:03:30",1512413,12.78,329,4.45,0.858,9.53,101.9678,4.321,5.623,33.93,0,109.8,13.47,5.09,291.0
"2009-12-18 01:04:00",1512414,13.47,325.7,3.514,0.848,9.59,101.9658,4.316,5.628,33.95,0,109.8,13.47,5.08,287.7
"2009-12-18 01:04:30",1512415,14.13,326.3,3.155,0.857,9.67,101.9658,4.316,5.621,33.79,0,109.8,13.47,5.08,288.3
"2009-12-18 01:05:00",1512416,14.4,325.6,3.248,0.827,9.83,101.9667,4.318,5.622,33.65,0,109.8,13.47,5.09,287.6
"2009-12-18 01:05:30",1512417,14.47,323.4,3.49,0.653,9.76,101.9672,4.32,5.603,33.66,0,109.8,13.47,5.09,285.4
"2009-12-18 01:06:00",1512418,14.43,324,3.036,0.836,9.94,101.9681,4.322,5.618,33.64,0,109.8,13.47,5.09,286.0
"2009-12-18 01:06:30",1512419,14.11,323.5,2.849,0.781,9.85,101.9658,4.316,5.581,33.54,0,109.8,13.48,5.08,285.5
"2009-12-18 01:07:00",1512420,14.14,324.3,3.296,0.764,9.94,101.9593,4.299,5.598,33.62,0,109.8,13.48,5.07,286.3
"2009-12-18 01:07:30",1512421,14.24,323.6,3.281,0.675,9.8,101.954,4.286,5.601,33.66,0,109.8,13.48,5.05,285.6
"2009-12-18 01:08:00",1512422,14.44,323.3,2.777,0.979,9.87,101.9503,4.276,5.573,33.73,0,109.8,13.48,5.04,285.3
"2009-12-18 01:08:30",1512423,14.52,323,4.111,0.785,9.96,101.9435,4.259,5.578,33.52,0,109.8,13.48,5.03,285.0
"2009-12-18 01:09:00",1512424,15.45,322.4,4.187,0.639,10.25,101.9387,4.247,5.569,33.54,0,109.8,13.48,5.01,284.4
"2009-12-18 01:09:30",1512425,15.33,323.3,2.108,0.753,10.01,101.935,4.237,5.555,33.41,0,109.8,13.48,5.00,285.3
"2009-12-18 01:10:00",1512426,15.01,324.4,3.342,0.778,10.07,101.9342,4.235,5.554,33.46,0,109.8,13.48,5.00,286.4
"2009-12-18 01:10:30",1512427,15.07,325.7,2.688,0.766,10.07,101.9342,4.235,5.55,33.46,0,109.8,13.48,5.00,287.7
"2009-12-18 01:11:00",1512428,14.72,323.9,3.798,0.798,10.08,101.9342,4.235,5.561,33.51,0,109.8,13.48,5.00,285.9
"2009-12-18 01:11:30",1512429,14.76,323.4,3.102,0.588,10.08,101.9342,4.235,5.553,33.51,0,109.8,13.48,5.00,285.4
"2009-12-18 01:12:00",1512430,14.54,324.5,3.47,0.735,10.03,101.9342,4.235,5.561,33.49,0,109.8,13.48,5.00,286.5
"2009-12-18 01:12:30",1512431,15.13,323.4,2.903,0.659,10.08,101.9342,4.235,5.55,33.45,0,109.7,13.48,5.00,285.4
"2009-12-18 01:13:00",1512432,15.3,324.3,3.361,0.663,10.32,101.9342,4.235,5.538,33.28,0,109.8,13.48,5.00,286.3
"2009-12-18 01:13:30",1512433,15.29,325.2,2.809,0.709,10.27,101.9342,4.235,5.54,33.2,0,109.8,13.48,5.00,287.2
"2009-12-18 01:14:00",1512434,15.01,324.3,3.303,0.853,10.08,101.9342,4.235,5.553,33.13,0,109.8,13.48,5.00,286.3
"2009-12-18 01:14:30",1512435,15.19,323.4,3.86,0.691,10.23,101.9342,4.235,5.558,33.05,0,109.8,13.48,5.00,285.4
"2009-12-18 01:15:00",1512436,15.25,322.6,2.689,0.7,10.32,101.9342,4.235,5.56,33.08,0,109.8,13.48,5.00,284.6
"2009-12-18 01:15:30",1512437,15.3,324.2,2.359,0.76,10.15,101.9342,4.235,5.542,32.93,0,109.8,13.48,5.00,286.2
"2009-12-18 01:16:00",1512438,15.03,323.2,3.348,0.785,10.29,101.9342,4.235,5.548,32.9,0,109.8,13.48,5.00,285.2
"2009-12-18 01:16:30",1512439,14.98,321.4,3.79,0.716,10.14,101.9344,4.236,5.556,32.77,0,109.8,13.48,5.00,283.4
"2009-12-18 01:17:00",1512440,15.24,324.5,3.017,0.749,10.34,101.935,4.237,5.535,32.78,0,109.7,13.48,5.00,286.5
"2009-12-18 01:17:30",1512441,15.28,324.2,1.826,0.721,10.14,101.9381,4.245,5.552,32.76,0,109.8,13.48,5.01,286.2
"2009-12-18 01:18:00",1512442,15.3,323.7,2.675,0.725,10.21,101.9415,4.254,5.566,32.73,0,109.8,13.48,5.02,285.7
"2009-12-18 01:18:30",1512443,15.04,323.1,3.752,0.812,10.17,101.9489,4.273,5.568,32.68,0,109.7,13.48,5.04,285.1
"2009-12-18 01:19:00",1512444,15.25,323.6,3.662,0.666,10.27,101.9537,4.285,5.566,32.81,0,109.7,13.48,5.05,285.6
"2009-12-18 01:19:30",1512445,15.58,323.6,3.418,0.547,10.18,101.9576,4.295,5.579,32.85,0,109.8,13.47,5.06,285.6
"2009-12-18 01:20:00",1512446,15.28,324.4,3.385,0.726,10.2,101.9636,4.31,5.596,32.85,0,109.8,13.47,5.08,286.4
"2009-12-18 01:20:30",1512447,15.19,325.6,2.772,0.778,10.33,101.9667,4.318,5.59,32.66,0,109.8,13.47,5.09,287.6
"2009-12-18 01:21:00",1512448,15.16,324.6,2.729,0.775,10.35,101.9678,4.321,5.575,32.51,0,109.8,13.47,5.09,286.6
"2009-12-18 01:21:30",1512449,15.06,323.8,2.742,0.654,10.16,101.9681,4.322,5.579,32.49,0,109.8,13.48,5.09,285.8
"2009-12-18 01:22:00",1512450,14.92,324.4,2.734,0.761,10.11,101.9681,4.322,5.596,32.56,0,109.8,13.48,5.09,286.4
"2009-12-18 01:22:30",1512451,14.96,323.5,3.336,0.655,10.21,101.9681,4.322,5.59,32.5,0,109.8,13.48,5.09,285.5
"2009-12-18 01:23:00",1512452,15.18,324.8,2.979,0.652,10.41,101.9681,4.322,5.608,32.46,0,109.8,13.49,5.09,286.8
"2009-12-18 01:23:30",1512453,14.97,324.1,2.808,0.628,10.31,101.9681,4.322,5.598,32.3,0,109.8,13.49,5.09,286.1
"2009-12-18 01:24:00",1512454,15.01,322.9,3.03,0.651,10.2,101.9681,4.322,5.629,32.31,0,109.8,13.49,5.09,284.9
"2009-12-18 01:24:30",1512455,14.65,324.1,2.595,0.803,10.13,101.9681,4.322,5.607,32.2,0,109.8,13.49,5.09,286.1
"2009-12-18 01:25:00",1512456,14.81,324.2,2.776,0.878,10.36,101.9681,4.322,5.62,32.16,0,109.8,13.49,5.09,286.2
"2009-12-18 01:25:30",1512457,15.05,324.1,3.845,0.682,10.23,101.9681,4.322,5.623,32.1,0,109.8,13.49,5.09,286.1
"2009-12-18 01:26:00",1512458,14.7,324.2,3.676,0.668,10.23,101.9687,4.323,5.633,32.05,0,109.8,13.49,5.09,286.2
"2009-12-18 01:26:30",1512459,14.54,325.1,2.186,0.765,10.11,101.9695,4.325,5.624,32.09,0,109.8,13.49,5.09,287.1
"2009-12-18 01:27:00",1512460,14.64,325.4,2.484,0.815,10.26,101.9709,4.329,5.628,32.11,0,109.8,13.49,5.10,287.4
"2009-12-18 01:27:30",1512461,14.68,326,3.112,0.639,10.11,101.9721,4.332,5.634,32.04,0,109.8,13.49,5.10,288.0
"2009-12-18 01:28:00",1512462,14.36,324.7,3.68,0.662,10.13,101.974,4.337,5.654,32.07,0,109.8,13.49,5.10,286.7
"2009-12-18 01:28:30",1512463,14.56,324.3,2.993,0.874,10.12,101.9763,4.343,5.625,32.13,0,109.8,13.49,5.11,286.3
"2009-12-18 01:29:00",1512464,14.39,324.8,1.784,0.912,10.19,101.9774,4.346,5.639,32.08,0,109.8,13.49,5.11,286.8
"2009-12-18 01:29:30",1512465,13.92,322.2,3.19,0.66,9.87,101.9828,4.359,5.658,32.15,0,109.8,13.49,5.13,284.2
"2009-12-18 01:30:00",1512466,13.41,321.8,2.786,0.751,9.73,101.9837,4.361,5.661,32.38,0,109.8,13.49,5.13,283.8
"2009-12-18 01:30:30",1512467,13.57,322.4,2.67,0.765,9.73,101.9876,4.372,5.658,32.48,0,109.8,13.49,5.14,284.4
"2009-12-18 01:31:00",1512468,13.53,323.5,1.577,0.856,9.83,101.9887,4.374,5.656,32.46,0,109.8,13.49,5.14,285.5
"2009-12-18 01:31:30",1512469,13.64,325.5,2.869,0.875,9.78,101.9868,4.369,5.651,32.5,0,109.8,13.49,5.14,287.5
"2009-12-18 01:32:00",1512470,14.24,325.6,3.464,0.779,9.9,101.9865,4.369,5.682,32.36,0,109.8,13.49,5.14,287.6
"2009-12-18 01:32:30",1512471,14.19,325.1,3.958,0.549,9.99,101.9834,4.361,5.678,32.29,0,109.8,13.48,5.13,287.1
"2009-12-18 01:33:00",1512472,14.28,325.1,2.772,0.744,10.04,101.9808,4.354,5.657,32.28,0,109.8,13.48,5.12,287.1
"2009-12-18 01:33:30",1512473,14.43,326.5,1.344,0.707,9.89,101.9791,4.35,5.669,32.2,0,109.8,13.48,5.12,288.5
"2009-12-18 01:34:00",1512474,13.8,324.7,3.476,0.679,9.9,101.9788,4.349,5.669,32.26,0,109.8,13.48,5.12,286.7
"2009-12-18 01:34:30",1512475,13.79,325.2,3.649,0.773,9.9,101.9774,4.346,5.655,32.32,0,109.8,13.48,5.11,287.2
"2009-12-18 01:35:00",1512476,13.31,326.5,1.589,0.861,9.84,101.9766,4.343,5.668,32.47,0,109.8,13.48,5.11,288.5
"2009-12-18 01:35:30",1512477,13.39,325.3,1.841,0.691,9.72,101.9766,4.343,5.667,32.55,0,109.8,13.48,5.11,287.3
"2009-12-18 01:36:00",1512478,13.17,326.1,2.706,0.74,9.69,101.974,4.337,5.666,32.54,0,109.8,13.48,5.10,288.1
"2009-12-18 01:36:30",1512479,13.15,325.9,2.858,0.745,9.62,101.9709,4.329,5.65,32.58,0,109.8,13.48,5.10,287.9
"2009-12-18 01:37:00",1512480,13.28,327,3.026,0.765,9.77,101.9681,4.322,5.649,32.59,0,109.8,13.48,5.09,289.0
"2009-12-18 01:37:30",1512481,12.98,326.5,2.446,0.783,9.65,101.9681,4.322,5.66,32.59,0,109.8,13.48,5.09,288.5
"2009-12-18 01:38:00",1512482,12.84,324.1,2.914,0.8,9.54,101.9681,4.322,5.652,32.65,0,109.8,13.49,5.09,286.1
"2009-12-18 01:38:30",1512483,12.91,322.3,3.377,0.707,9.59,101.9681,4.322,5.644,32.61,0,109.8,13.49,5.09,284.3
"2009-12-18 01:39:00",1512484,12.55,324.1,2.879,0.845,9.64,101.9681,4.322,5.632,32.58,0,109.8,13.49,5.09,286.1
"2009-12-18 01:39:30",1512485,12.22,326.4,2.799,0.586,9.59,101.9673,4.32,5.624,32.58,0,109.8,13.49,5.09,288.4
"2009-12-18 01:40:00",1512486,11.94,326.2,2.761,0.789,9.49,101.9607,4.303,5.637,32.47,0,109.8,13.49,5.07,288.2
"2009-12-18 01:40:30",1512487,11.96,325.3,2.881,0.843,9.48,101.9523,4.281,5.607,32.44,0,109.8,13.49,5.05,287.3
"2009-12-18 01:41:00",1512488,12.21,325.9,3.858,0.76,9.55,101.9412,4.253,5.607,32.5,0,109.8,13.49,5.02,287.9
"2009-12-18 01:41:30",1512489,11.97,327.4,2.089,0.747,9.29,101.9353,4.238,5.59,32.59,0,109.7,13.49,5.00,289.4
"2009-12-18 01:42:00",1512490,11.8,326.9,2.971,0.798,9.2,101.9342,4.235,5.607,32.69,0,109.8,13.49,5.00,288.9
"2009-12-18 01:42:30",1512491,12.15,328.6,3.427,0.849,9.25,101.9342,4.235,5.587,32.67,0,109.8,13.49,5.00,290.6
"2009-12-18 01:43:00",1512492,12.38,328.9,3.153,0.805,9.47,101.9342,4.235,5.565,32.51,0,109.8,13.49,5.00,290.9
"2009-12-18 01:43:30",1512493,11.99,329,3.221,0.639,9.27,101.9342,4.235,5.547,32.44,0,109.8,13.49,5.00,291.0
"2009-12-18 01:44:00",1512494,11.56,327.3,4.077,0.674,9.11,101.9339,4.234,5.559,32.68,0,109.8,13.49,5.00,289.3
"2009-12-18 01:44:30",1512495,12.06,328.2,3.496,0.82,9.41,101.9325,4.231,5.541,32.62,0,109.8,13.49,5.00,290.2
"2009-12-18 01:45:00",1512496,12.15,325.3,3.658,0.823,9.52,101.9257,4.213,5.527,32.41,0,109.8,13.49,4.98,287.3
"2009-12-18 01:45:30",1512497,11.61,325.2,2.781,0.759,9.25,101.9209,4.201,5.54,32.49,0,109.8,13.49,4.97,287.2
"2009-12-18 01:46:00",1512498,11.68,324.6,3.314,0.74,9.22,101.9166,4.19,5.545,32.56,0,109.8,13.49,4.96,286.6
"2009-12-18 01:46:30",1512499,12.15,325.3,3.754,0.666,9.32,101.9161,4.189,5.528,32.53,0,109.8,13.49,4.96,287.3
"2009-12-18 01:47:00",1512500,11.79,324.8,2.291,0.875,9.36,101.909,4.171,5.521,32.4,0,109.8,13.49,4.94,286.8
"2009-12-18 01:47:30",1512501,12.77,325.8,4.283,0.804,9.39,101.9022,4.154,5.494,32.4,0,109.8,13.49,4.92,287.8
"2009-12-18 01:48:00",1512502,12.97,328.6,4.567,0.627,9.47,101.9002,4.148,5.525,32.14,0,109.8,13.49,4.91,290.6